Tracking 30994 objects as of 8-Jul-2025
HD Live streaming from Space Station
objects crossing your sky now

STARLINK-32801

Track STARLINK-32801 now!
10-day predictions
STARLINK-32801 is classified as:


NORAD ID: 63035
Int'l Code: 2025-034G
Perigee: 453.5 km
Apogee: 455.2 km
Inclination: 53.2 °
Period: 93.5 minutes
Semi major axis: 6825 km
RCS: Unknown
Launch date: February 18, 2025
Source: United States (US)
Launch site: AIR FORCE EASTERN TEST RANGE (AFETR)
Your satellite tracking list
Your tracking list is empty




NASA's NSSDC Master Catalog

Two Line Element Set (TLE):
1 63035U 25034G   25188.60503506  .00020919  00000-0  53129-3 0  9994
2 63035  53.1591 323.5974 0001289 103.9804 256.1344 15.39633533 21460
Source of the keplerian elements: AFSPC